sat.trackr.live / text

‹ back to catalog

HERMES-2

NORAD 63243 · 2025-052AK

PAYLOAD ACTIVE UNKNOWN

§ Identity

Operator
Country
IT
Launch date
2025-03-15
Launch site
AFWTR
Launch vehicle
Mass (kg)
RCS (m²)

External: N2YO · Heavens-Above · Gunter

§ Orbital elements

Epoch: 2026-09-21T22:37:43.562784Z

Period
94.01 min
Inclination
97.3748°
Eccentricity
0.0005919
Mean motion
15.31824203 rev/d
Perigee alt
466.3 km
Apogee alt
474.4 km
Semi-major
6,848.5 km
B*
1.5758e-4
RAAN
159.4023°
Arg perigee
118.1378°
Mean anomaly
242.0462°
Rev number
8,482

§ Raw data

HERMES-21 63243U 25052AK  26264.94286531  .00004766  00000+0  15758-3 0  99912 63243  97.3748 159.4023 0005919 118.1378 242.0462 15.31824203 84826

JSON: /api/v1/satellites/63243 · /tle

For live sub-satellite position, see the globe view (requires WebGL).

§ Visibility from observer

Set your observer location to see the next 7 days of passes ≥ 10°. The values pass through the URL so the page stays shareable.

No JS? Fill the form by hand. The geolocation button needs JavaScript.

§ Radio — SatNOGS DB

ModeDescriptionDownlinkUplink
GFSK Mode U - Transmitter 401.500 MHz

1 transmitter · refreshed weekly from db.satnogs.org